Temperature
18 18 18 18 18 18 18 18 18 18 18 18 18 18 18 18 18 18 18 18 18 18 18 18 18 18 18 18 18 18 17 17 17 17 17 17 17 17 17 17 17 17 17
18 18 18 18 18 18 18 18 18 18 18 18 18 18 18 18 18 18 18 18 18 18 18 18 18 18 18 18 18 17 17 17 17 17 17 17 17 17 17 17 17 17 17
17 17 17 17 18 18 18 18 18 18 18 18 18 18 18 18 18 18 18 18 18 18 18 18 18 18 18 18 18 17 17 17 17 17 17 17 17 17 17 17 17 17 17
17 17 17 17 17 18 18 18 18 18 18 18 18 18 18 18 18 18 18 18 18 18 18 18 18 18 18 18 17 17 17 17 17 17 17 17 17 17 17 17 17 17 17
17 17 17 17 17 17 17 18 17 18 18 18 18 18 18 18 18 18 18 18 18 18 18 18 17 17 17 17 17 17 17 17 17 17 17 17 17 17 17 17 17 17 17
16 16 17 17 17 17 17 17 17 17 18 18 18 18 18 18 18 18 18 18 18 18 18 18 17 17 17 17 17 17 17 17 17 17 17 17 17 17 17 17 16 16 16
16 16 16 16 17 17 17 17 17 17 17 17 17 17 18 18 18 18 18 18 18 18 18 17 17 17 17 17 17 17 17 17 17 17 17 17 17 17 17 17 16 16 16
15 16 16 16 16 16 17 17 17 17 17 17 17 17 17 17 18 18 18 18 18 18 17 17 17 17 17 17 17 17 17 17 17 17 17 17 17 17 17 17 17 16 16
15 15 15 15 16 16 16 16 16 16 16 17 17 17 17 17 17 18 18 18 18 17 17 17 17 17 17 17 17 17 17 17 17 17 17 17 17 16 16 16 16 16 16
15 15 15 15 15 16 16 16 16 16 16 16 16 16 17 17 17 17 17 17 17 17 17 17 17 17 17 17 17 17 17 17 17 17 17 16 16 16 16 16 16 16 16
14 14 15 15 15 15 15 16 16 16 16 16 16 16 16 16 17 17 17 17 17 17 17 17 17 17 17 17 17 17 17 17 17 16 16 16 16 16 16 16 16 16 16
14 14 14 15 15 15 15 15 15 15 15 16 16 16 16 16 16 17 17 17 17 17 17 17 17 17 17 17 17 17 16 16 16 16 16 16 16 16 16 16 16 16 15
14 14 14 14 14 14 15 15 15 15 15 15 15 16 16 16 16 16 17 16 16 16 16 16 16 16 16 16 16 16 16 16 16 16 16 16 16 16 16 15 15 15 15
13 13 14 14 14 14 14 14 15 15 15 15 15 15 15 15 15 16 16 16 16 16 16 16 16 16 16 16 16 16 16 16 16 16 16 16 15 15 15 15 15 15 15
13 13 13 14 14 14 14 14 14 14 15 15 15 15 15 15 15 15 15 15 15 15 15 15 15 15 15 16 15 15 15 15 15 15 15 15 15 15 15 15 15 15 15
12 13 13 13 13 14 14 14 14 14 14 14 15 15 15 15 15 15 15 15 15 15 15 15 15 15 15 15 15 15 15 15 15 15 15 15 15 14 14 14 14 14 14
12 12 12 13 13 13 13 14 14 14 14 14 14 14 14 14 14 14 15 15 15 15 15 15 15 15 15 15 15 15 14 14 14 14 14 14 14 14 14 14 14 14 14
12 12 12 12 13 13 13 13 14 14 14 14 14 14 14 14 14 14 14 14 14 14 14 15 14 14 14 14 14 14 14 14 14 14 14 14 14 14 14 14 14 13 13
12 12 12 12 12 13 13 13 13 13 14 14 14 14 14 14 14 14 14 14 14 14 14 14 14 14 14 14 14 14 14 14 13 13 13 13 13 13 13 13 13 13 13
12 12 12 12 12 12 13 13 13 13 13 13 13 13 13 13 14 14 14 14 14 14 14 14 14 14 14 14 14 13 13 13 13 13 13 13 13 13 13 13 12 13 13
11 11 12 12 12 12 12 12 13 13 13 13 13 13 13 13 13 13 13 14 14 14 14 14 14 13 13 13 13 13 13 13 12 12 12 12 12 12 12 12 12 12 12
11 11 12 12 12 12 12 12 12 12 13 13 13 13 13 13 13 13 13 13 13 13 13 13 13 13 13 13 13 13 13 13 12 12 12 12 12 12 12 12 12 12 12
11 11 11 11 12 12 12 12 12 12 12 12 12 13 13 13 13 13 13 13 13 13 13 13 13 13 13 13 13 13 13 13 12 12 12 11 11 11 11 11 11 11 11
11 11 11 11 11 11 11 11 12 12 12 12 12 12 12 12 12 13 13 13 13 13 13 13 13 13 13 13 13 13 13 12 12 11 11 11 11 11 10 11 10 10 10
11 11 11 11 11 11 11 11 11 12 12 12 12 12 12 12 12 12 12 12 12 12 12 12 12 13 13 13 13 12 12 12 12 11 11 11 10 10 10 10 10 10 10
11 11 11 11 11 11 11 11 11 11 12 12 12 12 12 12 12 12 12 12 12 12 12 12 12 12 12 12 12 12 12 12 12 11 11 11 10 10 10 9 9 9 9
Wind_Speed
5 5 5 7 9 10 9 7 7 7 7 8 9 9 7 8 11 12 12 15 14 13 12 11 10 10 10 9 9 9 9 9 9 9 9 9 9 9 9 8 8 7 7
5 4 5 5 7 9 10 9 8 7 7 6 7 8 8 10 12 13 12 14 15 14 13 12 11 11 11 10 10 9 9 9 9 9 8 9 8 8 8 8 7 6 5
6 4 4 5 6 9 9 7 7 6 6 6 7 7 6 9 11 13 13 12 13 14 14 13 12 12 12 12 11 10 10 9 9 9 9 8 8 8 7 7 6 5 5
7 4 4 5 6 7 6 5 5 5 5 4 4 4 5 6 9 11 12 12 12 12 14 14 14 13 13 13 12 11 11 10 10 9 9 8 8 7 6 6 6 5 4
7 5 4 4 5 4 5 6 5 4 4 3 4 4 4 6 7 9 9 11 13 13 13 15 15 15 14 13 13 12 12 11 10 10 10 9 8 7 6 6 5 5 4
7 5 4 4 4 4 4 4 4 4 3 3 3 2 2 4 5 6 7 9 11 13 14 13 14 14 15 15 15 14 13 12 12 11 10 10 9 8 7 6 6 5 4
6 4 4 4 4 5 5 5 4 4 3 2 2 0 1 0 3 4 5 5 7 11 12 13 13 12 13 15 16 15 15 14 13 12 11 10 9 9 8 8 7 6 5
5 4 4 4 5 4 5 6 5 4 3 4 3 2 0 1 1 2 3 5 6 7 8 12 12 12 12 13 15 17 16 15 14 13 12 11 11 10 9 8 7 6 5
4 3 3 4 4 4 5 6 6 6 5 4 4 4 4 4 2 1 2 3 5 5 6 8 11 13 14 13 14 16 17 17 15 14 13 12 12 11 10 9 8 7 6
3 3 2 3 4 4 5 6 6 5 5 5 3 3 3 3 3 2 1 1 3 5 5 5 6 10 13 14 15 16 18 18 17 15 14 13 12 11 11 9 8 8 7
4 3 2 2 3 3 5 6 6 6 5 5 4 3 3 2 2 3 2 1 1 2 4 4 3 6 10 13 14 16 18 18 17 16 15 14 13 12 11 10 9 8 8
4 4 3 2 2 2 3 5 6 7 6 6 5 4 4 4 4 4 3 3 2 2 2 3 4 4 7 10 12 15 18 19 18 17 15 14 13 12 11 11 10 9 8
4 4 3 3 2 2 3 3 4 6 7 7 7 5 5 5 4 4 4 3 2 1 1 2 3 3 5 8 10 13 16 18 18 16 15 14 13 12 11 10 9 8 8
4 4 4 3 3 2 2 2 3 4 5 6 7 7 5 5 4 4 4 4 3 1 2 2 1 3 5 7 8 12 12 15 16 15 14 13 12 11 10 9 9 8 7
4 5 4 4 3 3 2 1 2 2 3 5 5 6 5 4 4 4 4 4 5 4 3 3 2 2 4 6 7 9 9 12 14 14 14 12 11 9 9 7 7 6 6
6 6 5 5 4 3 2 0 1 2 2 3 4 5 4 4 4 4 4 3 4 4 3 3 2 2 3 5 7 8 8 10 12 13 12 11 10 9 8 7 6 6 6
7 7 6 6 5 4 3 1 0 1 2 2 3 4 4 4 4 4 4 4 3 3 3 2 1 2 3 5 5 6 6 6 7 10 11 10 9 9 8 8 7 6 6
7 7 7 6 5 5 4 3 2 1 1 2 3 3 3 4 4 4 4 4 4 4 4 4 2 2 2 5 5 5 5 6 6 7 9 9 9 8 8 7 7 6 6
8 8 7 7 6 5 4 3 3 2 2 2 2 2 2 3 3 3 4 4 4 4 3 4 3 2 2 4 5 5 5 4 6 8 9 9 9 8 8 8 8 7 6
8 8 8 8 7 6 6 5 4 4 4 4 3 2 2 2 3 3 3 4 4 4 4 4 4 3 3 4 5 5 5 4 4 6 9 10 10 10 10 9 9 8 8
9 8 8 8 8 6 6 6 5 5 5 5 4 3 2 2 3 3 3 4 4 4 4 4 4 3 3 5 5 4 6 6 5 4 6 6 8 8 8 8 8 8 8
8 8 8 8 8 7 10 10 7 6 6 6 5 4 3 3 3 4 5 6 6 6 5 4 3 5 4 4 5 6 7 5 3 3 5 5 5 5 7 8 9 10 9
8 8 9 9 8 9 13 13 11 7 6 6 5 4 4 4 5 5 6 7 7 7 6 5 5 5 5 5 7 7 6 5 4 5 5 4 4 5 6 8 10 11 10
6 6 8 8 8 10 13 13 12 8 7 7 6 5 5 4 5 6 7 7 6 5 5 4 4 4 5 6 6 6 7 7 6 4 3 4 3 3 4 7 9 10 10
5 6 6 8 8 9 13 13 10 6 7 7 7 6 6 6 9 9 8 8 8 6 8 11 10 9 10 11 10 8 7 8 5 2 2 3 3 3 2 3 6 8 9
4 5 7 7 8 8 12 12 10 5 6 5 6 7 9 9 9 8 7 7 7 5 6 7 8 9 9 9 9 7 7 8 5 3 2 3 4 3 3 1 2 4 6
Wind_Direction
228 223 220 215 211 207 208 214 220 226 232 237 238 234 220 202 190 188 195 192 182 180 178 176 175 172 169 166 160 157 153 149 145 145 142 140 138 135 135 131 129 128 126
227 218 216 213 211 210 214 216 218 222 228 229 230 227 213 191 187 188 191 191 186 183 183 183 181 179 177 174 172 168 165 163 160 156 150 147 145 142 143 142 139 140 141
234 222 217 214 214 210 211 216 224 226 230 227 225 220 197 181 182 186 187 187 188 189 189 189 186 185 183 181 180 177 174 171 167 164 160 158 155 153 152 151 151 154 157
253 234 225 220 212 205 203 205 214 224 227 219 211 202 183 176 177 182 184 187 187 191 195 195 192 191 190 188 186 185 182 178 174 171 169 168 166 165 166 167 167 169 172
268 248 235 228 213 201 203 211 204 206 215 215 210 196 177 173 177 180 183 189 191 192 193 197 197 196 194 192 191 189 187 185 183 182 180 178 177 176 175 177 177 177 178
267 248 235 229 215 205 201 200 199 200 200 199 206 198 188 178 177 179 186 188 194 197 195 194 196 200 199 196 194 192 192 191 190 188 186 183 182 181 179 180 181 180 182
271 249 243 227 217 212 208 198 191 195 202 177 132 82 330 264 187 187 184 179 189 195 196 198 196 195 200 203 199 197 197 196 196 195 192 189 188 188 187 187 188 192 198
282 257 233 227 219 211 208 200 191 182 186 175 154 140 180 311 283 209 183 182 187 185 190 200 200 200 199 199 203 203 201 200 199 198 197 194 192 190 189 190 193 200 208
302 278 243 229 220 208 208 207 199 186 187 187 168 157 164 207 232 271 201 187 182 176 185 191 197 204 205 203 204 208 205 202 201 201 200 198 195 193 195 196 201 202 205
313 304 264 233 223 213 210 214 207 196 182 186 184 188 177 171 165 200 290 191 185 178 180 188 198 205 206 204 206 207 207 205 205 204 203 201 200 199 200 202 203 205 208
317 319 302 258 234 223 219 212 202 196 195 187 180 172 182 196 175 164 189 207 204 197 184 178 184 195 201 201 204 209 208 206 207 206 205 204 204 204 204 207 208 209 209
321 327 319 299 263 234 227 219 205 197 201 195 190 181 176 176 187 173 178 192 200 218 200 188 187 192 195 194 200 206 207 205 206 205 204 204 206 207 209 210 210 211 213
322 321 327 318 299 259 236 220 205 199 197 193 194 199 198 201 178 167 160 167 180 205 194 206 198 186 188 189 196 202 205 204 204 204 205 204 205 206 207 209 210 212 213
322 329 334 327 318 297 263 222 208 204 194 197 201 196 198 202 188 175 164 156 158 188 207 216 195 183 176 184 196 194 200 201 201 201 203 203 202 201 202 205 206 206 207
345 349 347 344 339 331 309 231 214 206 193 195 195 190 191 195 184 175 164 162 159 177 211 211 190 195 177 174 182 183 188 197 199 200 200 199 197 195 197 196 196 193 187
357 354 351 352 355 350 341 316 227 211 187 194 187 182 186 184 177 173 171 168 163 164 187 205 192 178 169 161 163 170 182 194 198 197 194 192 189 185 187 182 177 175 172
5 5 359 359 359 356 351 355 288 184 178 174 167 172 181 178 174 174 168 165 169 161 173 192 172 156 155 150 145 153 162 166 177 181 179 177 173 169 170 168 166 165 162
9 8 8 11 10 6 9 22 27 48 150 154 152 154 169 171 170 175 176 175 177 173 169 177 170 165 161 161 150 147 143 148 143 150 158 157 152 151 150 152 150 149 151
11 12 14 16 13 12 20 31 39 46 77 103 119 131 154 153 170 177 180 179 177 176 164 162 168 158 137 146 136 132 130 122 135 134 134 134 134 135 137 134 131 130 131
14 14 13 15 16 23 29 39 49 56 65 76 82 97 118 145 170 171 172 172 169 166 160 156 152 143 137 140 137 138 128 115 117 117 109 106 108 105 107 110 114 115 115
16 11 15 18 18 27 34 44 57 66 68 70 65 65 71 101 142 155 163 168 159 155 152 153 150 141 140 145 146 138 129 116 94 99 103 92 89 82 82 88 94 101 105
12 19 23 22 25 32 42 52 63 68 67 68 63 52 54 59 88 115 128 133 145 149 151 147 148 153 154 146 136 138 136 132 121 116 103 90 79 80 71 81 90 92 92
17 23 21 25 28 30 46 53 60 65 62 54 49 47 54 58 68 85 94 93 90 104 125 142 151 158 156 157 147 144 142 131 123 137 112 95 77 78 69 77 89 91 88
18 21 23 25 30 33 44 52 58 60 60 51 45 47 59 53 72 90 91 81 73 70 88 102 124 139 146 148 147 142 133 108 97 101 101 108 99 82 68 67 82 90 90
24 24 24 29 31 25 36 49 58 59 58 47 43 45 55 62 75 88 95 93 83 70 72 82 87 96 111 124 129 125 126 129 126 121 84 110 125 107 81 57 67 80 85
28 32 36 28 28 24 32 47 58 63 59 46 39 40 49 61 67 74 92 100 96 84 84 77 71 73 82 95 110 130 143 143 133 137 135 115 140 137 122 87 64 68 73
Height
1538 1539 1540 1541 1542 1543 1544 1545 1546 1547 1549 1550 1551 1552 1554 1555 1556 1557 1558 1559 1559 1559 1559 1559 1560 1561 1562 1563 1564 1565 1566 1566 1567 1568 1569 1570 1571 1572 1572 1573 1574 1574 1575
1534 1535 1536 1536 1538 1540 1542 1543 1544 1545 1547 1548 1549 1550 1552 1553 1554 1556 1557 1558 1558 1558 1558 1558 1559 1560 1561 1562 1563 1564 1565 1566 1567 1568 1569 1570 1571 1572 1572 1573 1573 1574 1574
1530 1531 1532 1533 1534 1536 1538 1539 1541 1542 1544 1545 1546 1548 1549 1550 1552 1554 1555 1556 1557 1557 1557 1557 1558 1559 1560 1561 1563 1564 1565 1566 1567 1568 1569 1570 1570 1571 1572 1573 1573 1574 1574
1526 1527 1527 1529 1530 1532 1533 1535 1537 1539 1540 1542 1544 1545 1547 1548 1550 1552 1553 1554 1555 1556 1556 1557 1557 1558 1559 1560 1561 1563 1564 1565 1566 1567 1568 1569 1570 1571 1571 1572 1573 1573 1574
1521 1521 1523 1524 1526 1527 1529 1531 1532 1534 1536 1539 1541 1542 1544 1546 1548 1549 1551 1552 1554 1554 1555 1556 1556 1557 1558 1559 1560 1562 1563 1564 1565 1566 1567 1568 1569 1570 1570 1571 1572 1572 1573
1516 1517 1518 1519 1521 1523 1524 1526 1528 1530 1533 1535 1537 1539 1542 1543 1545 1547 1548 1550 1551 1553 1554 1554 1555 1556 1557 1558 1559 1560 1561 1563 1564 1565 1566 1567 1568 1569 1569 1570 1571 1571 1572
1511 1512 1513 1514 1516 1517 1519 1521 1523 1526 1528 1531 1534 1536 1538 1540 1542 1544 1545 1547 1549 1550 1551 1553 1554 1555 1556 1557 1558 1559 1560 1561 1562 1563 1564 1565 1566 1567 1568 1569 1570 1570 1571
1507 1507 1508 1509 1511 1512 1514 1516 1518 1520 1524 1527 1529 1532 1534 1537 1538 1540 1542 1544 1545 1547 1548 1550 1551 1553 1554 1555 1556 1557 1558 1559 1561 1562 1563 1564 1565 1566 1566 1567 1568 1569 1569
1503 1503 1504 1505 1506 1508 1509 1511 1514 1516 1519 1522 1525 1528 1530 1531 1534 1536 1537 1540 1542 1543 1545 1547 1548 1550 1552 1553 1554 1555 1557 1558 1559 1560 1561 1562 1563 1564 1565 1565 1566 1567 1567
1500 1500 1501 1501 1502 1503 1505 1507 1509 1511 1514 1517 1520 1523 1526 1527 1530 1531 1533 1535 1538 1540 1542 1543 1545 1547 1549 1550 1552 1553 1555 1556 1557 1558 1559 1560 1561 1562 1563 1564 1564 1565 1566
1498 1497 1497 1498 1499 1499 1501 1502 1504 1506 1509 1512 1514 1517 1520 1523 1525 1527 1528 1531 1534 1535 1537 1539 1541 1543 1545 1547 1549 1551 1552 1553 1555 1556 1557 1558 1559 1560 1561 1562 1562 1563 1564
1495 1495 1494 1495 1495 1496 1497 1498 1500 1502 1504 1507 1509 1512 1515 1518 1520 1522 1524 1527 1529 1531 1533 1535 1536 1539 1541 1543 1545 1547 1549 1551 1552 1554 1555 1556 1557 1558 1559 1560 1561 1561 1562
1493 1492 1492 1492 1492 1492 1493 1494 1496 1498 1500 1502 1505 1507 1510 1513 1516 1519 1521 1523 1525 1527 1529 1531 1533 1534 1536 1538 1541 1543 1545 1547 1549 1551 1552 1553 1555 1556 1557 1558 1558 1559 1560
1492 1491 1490 1489 1489 1490 1490 1491 1492 1494 1496 1498 1500 1502 1505 1508 1511 1514 1516 1519 1521 1523 1525 1527 1528 1530 1532 1534 1537 1539 1541 1544 1546 1547 1549 1550 1552 1553 1554 1555 1556 1557 1558
1491 1490 1489 1488 1487 1487 1487 1488 1489 1491 1492 1494 1497 1499 1501 1503 1507 1509 1512 1515 1518 1519 1521 1523 1525 1527 1529 1531 1533 1535 1537 1539 1542 1544 1546 1547 1548 1550 1551 1552 1553 1554 1555
1491 1489 1488 1486 1485 1485 1485 1486 1486 1488 1490 1492 1493 1495 1497 1500 1502 1505 1508 1510 1513 1516 1517 1519 1522 1524 1526 1528 1530 1532 1534 1536 1538 1540 1542 1544 1545 1547 1548 1549 1550 1551 1552
1492 1489 1487 1485 1484 1483 1483 1483 1484 1486 1487 1489 1491 1492 1494 1496 1499 1501 1504 1507 1509 1512 1514 1517 1519 1521 1523 1525 1527 1529 1531 1533 1535 1537 1539 1540 1542 1543 1545 1546 1547 1548 1549
1492 1490 1488 1485 1484 1483 1482 1482 1483 1484 1486 1487 1488 1490 1492 1494 1496 1498 1501 1503 1506 1508 1511 1513 1516 1518 1520 1522 1524 1526 1528 1530 1532 1534 1536 1537 1539 1540 1541 1543 1544 1546 1547
1494 1491 1488 1486 1484 1483 1482 1482 1483 1484 1485 1486 1487 1489 1491 1492 1494 1496 1498 1500 1503 1505 1508 1510 1513 1515 1517 1520 1522 1524 1526 1528 1530 1532 1533 1535 1537 1538 1539 1540 1542 1543 1544
1495 1492 1489 1487 1485 1484 1483 1483 1483 1484 1485 1486 1487 1489 1490 1491 1493 1494 1496 1498 1500 1503 1505 1508 1510 1512 1515 1517 1520 1522 1524 1527 1529 1530 1532 1533 1535 1536 1538 1539 1540 1541 1542
1497 1494 1491 1489 1487 1486 1485 1485 1485 1485 1486 1487 1488 1489 1490 1491 1492 1493 1495 1496 1498 1500 1503 1505 1507 1510 1512 1514 1517 1519 1522 1524 1527 1529 1530 1532 1534 1535 1537 1538 1539 1540 1541
1499 1496 1494 1492 1490 1489 1488 1487 1486 1487 1487 1487 1488 1489 1489 1490 1491 1493 1494 1496 1497 1499 1501 1503 1505 1507 1510 1512 1515 1517 1520 1523 1525 1528 1530 1532 1534 1535 1536 1537 1538 1539 1540
1502 1499 1497 1495 1494 1492 1491 1490 1489 1488 1488 1489 1489 1489 1490 1490 1491 1493 1494 1495 1497 1498 1501 1502 1504 1506 1509 1511 1513 1516 1519 1522 1524 1527 1530 1531 1533 1535 1536 1537 1538 1538 1538
1506 1503 1501 1499 1497 1496 1495 1493 1492 1491 1491 1491 1491 1491 1491 1492 1493 1494 1495 1496 1497 1499 1501 1503 1505 1507 1509 1512 1514 1516 1519 1521 1524 1527 1530 1531 1533 1535 1536 1537 1538 1538 1538
1509 1507 1505 1503 1501 1499 1498 1497 1495 1494 1494 1494 1494 1494 1494 1494 1495 1496 1497 1497 1498 1500 1502 1504 1506 1507 1510 1512 1514 1516 1519 1521 1524 1527 1529 1531 1533 1534 1536 1537 1537 1537 1538
1512 1510 1508 1506 1504 1502 1501 1500 1499 1498 1497 1496 1497 1497 1497 1497 1497 1498 1499 1500 1500 1502 1503 1505 1507 1509 1511 1513 1515 1517 1519 1521 1523 1526 1528 1530 1532 1534 1536 1537 1537 1537 1537